Flugplatz Butzweilerhof (ETBB)

Hier findest Du alle Informationen zum Flugplatz Butzweilerhof (ETBB).

Informationen für Piloten zum Flugplatz Butzweilerhof

Hier findest Du alle relevanten Informationen, die Du als Pilot benötigst, um Butzweilerhof anzufliegen.

Flugplatz: Butzweilerhof ICAO-Code: ETBB
Frequenz Turm: 122,100 Mhz GAFOR Gebiet: 34
Frequenz Ground: 122,100 Mhz Mogas: nein
Platzrunde: - Landegebühr: -
Platzhöhe: - Sunrise: 06:04 Uhr UTC
Pisten: Sunset: 16:28 Uhr UTC

Flugwetter am Flugplatz Butzweilerhof

Die METAR Information stammen aus EDDK (22.13 km entfernt).

METAR Code:
2020/10/20 10:50
EDDK 201050Z 14010KT 9999 FEW047 12/09 Q1012 NOSIG

Flugschulen am Flugplatz Butzweilerhof

Am Flugplatz Butzweilerhof gibt es leider keine Flugschule.

Benachbarte Flugplätze und Flugschulen

Es gibt 18 weitere Flugplätze in einem Umkreis von 50 km um den Flugplatz Butzweilerhof.

Jetzt anmelden

Passwort vergessen

Umfrage Archiv

Wären Rettungsgeräte keine Pflicht mehr, würdet Ihr Euer UL trotzdem mit einem ausstatten?

Ja
86.4 %
Nein
13.6 %
Stimmen: 354 | Diskussion
Anzeige: Roland Aircraft
Statistik Alle Mitglieder

Aktuell sind 46 Besucher online, davon 2 Mitglieder und 44 Gäste.


Mitglieder online:
Chris_EDNC  spalter83 

Anzeige: VFR Sprechfunk Simulator


Anzeige: Pocket FMS